Royal Cup Race - INVENTORY 3-1 TO 5-21

Station: Inventory - T Race

Distance: 1 Miles

Release: 04-Jun-2024 09:00

Weather Release:    Arrival:

Wind at Release:     Wind at Arrival:

Temp at Release: °    Temp at Arrival: °

Lofts: 149

Birds: 800

Clocked: 734

Good Luck to Everyone!
Drops Pos Breeder Pigeon Name Color Sex Team Ent Arrival Speed To Win Elg PdIEBCTeam
1 Blue Angel Classic - FL 2426-AU24-WARD BB C 0 1 10:32:56.40 18.9369 00:00:00 Yes
2 D and M Syndicate BC - BC 24045-CU24-ELDO BB H 0 1 10:32:58.30 18.9305 00:00:02 Yes
3 Hayloft - CA 4358-AU24-GSF BB H 0 1 10:32:58.70 18.9291 00:00:02 Yes
4 Mullins Family Loft - CA 56575-AU24-ARPU BC H 0 1 10:33:00.80 18.9220 00:00:04 Yes
5 Taylors Loft - HI 0727-AU24-HAWA BBSP H 0 1 10:33:03.20 18.9139 00:00:07 Yes
6 Onya Loft - CA 0022-AU24-SIOR BBWF H 0 1 10:33:03.70 18.9122 00:00:07 Yes
7 MannyRon ONE HIT COMBO - CA 24282-AU24-JEDD WITTAMER DCWF H 0 1 10:33:04.20 18.9105 00:00:08 Yes
8 Wpg Loft - CA 26113-AU24-ARPU DCWF H 0 1 10:33:06.10 18.9041 00:00:10 Yes
9 Two-Be-Won - NV 24077-AU24-TBW 21068-21064 BB H 0 1 10:33:06.60 18.9024 00:00:10 Yes
10 Milestone Loft - CA 6650-AU24-JEDD 🌺🌺🌺🌺🌺🌺ð BB H 0 1 10:33:07.10 18.9007 00:00:11 Yes
11 Lillie and Cecil - CA 0022-AU24-LNC PIGEON OF DOOM BBWF H 0 1 10:33:07.80 18.8983 00:00:11 Yes
12 Mullins Family Loft - CA 56414-AU24-ARPU BB H 0 2 10:33:08.30 18.8966 00:00:12 Yes
13 Gabrielsen Loft - CA 0474-AU24-TOPP Roziers Team BBTI H 0 1 10:33:10.10 18.8905 00:00:14 Yes
14 Vasquez Lofts - CA 0119-AU24-VL BB H 0 1 10:33:10.20 18.8902 00:00:14 Yes
15 Lillie and Cecil - CA 0003-AU24-LNC C & K CASH BC H 0 2 10:33:10.60 18.8888 00:00:14 Yes
16 Los Banditos - CA 2440-AU24-LOSB BB H 0 1 10:33:11.30 18.8865 00:00:15 Yes
17 Wpg Loft - CA 26120-AU24-ARPU BCWF H 0 2 10:33:11.60 18.8855 00:00:15 Yes
18 Two-Be-Won - NV 24085-AU24-TBW 22098-1068 BB H 0 2 10:33:11.70 18.8851 00:00:15 Yes
19 Milestone Loft - CA 6633-AU24-JEDD 🌺🌺🌺🌺🌺🌺ð BC C 0 2 10:33:12.40 18.8828 00:00:16 Yes
20 Michael Groe - CA 2457-AU24-GROE BB H 0 1 10:33:12.50 18.8824 00:00:16 Yes
21 D and M Syndicate BC - BC 24040-CU24-ELDO BB H 0 2 10:33:13.00 18.8807 00:00:17 Yes
22 Mullins Family Loft - CA 56555-AU24-ARPU BB H 0 3 10:33:13.40 18.8794 00:00:17 Yes
23 De La O-Lopez-Saenz - CA 4035-AU24-COOK BB H 0 1 10:33:13.90 18.8777 00:00:17 Yes
24 Danny Lum - HI 1930-IF24-FS BB C 0 1 10:33:14.40 18.8760 00:00:18 Yes
25 SilverwingLoft - CA 42257-AU24-ARPU BB H 0 1 10:33:15.30 18.8730 00:00:19 Yes
26 Perez Family Loft - MN 0554-AU24-PFL DC H 0 1 10:33:15.80 18.8713 00:00:19 Yes
26 C L A U S I N G - FL 0158-IF24-CLAU SIL C 0 1 10:33:15.80 18.8713 00:00:19 Yes
28 D and M Syndicate BC - BC 24043-CU24-ELDO BB H 0 3 10:33:16.30 18.8696 00:00:20 Yes
28 No Limit Loft - CA 87102-AU24-ARPU BB H 0 1 10:33:16.30 18.8696 00:00:20 Yes
30 Ganus Family Loft - IN 0606-AU24-GFL BBWF C 0 1 10:33:16.90 18.8676 00:00:20 Yes
31 Blue Angel Classic - FL 2451-AU24-WARD BBWF H 0 2 10:33:17.90 18.8642 00:00:21 Yes
32 Gene And Eddie - CA 0448-AU24-VIP BC H 0 1 10:33:19.10 18.8602 00:00:23 Yes
33 De La O-Lopez-Saenz - CA 4068-AU24-COOK BB C 0 2 10:33:19.60 18.8585 00:00:23 Yes
34 Tala Loft - CA 0051-AU24-WOC BC H 0 1 10:33:20.20 18.8565 00:00:24 Yes
35 C&k Loft - FL 0740-AU24-KENC BB C 0 1 10:33:21.80 18.8511 00:00:25 Yes
36 FRITZIE - CA 32468-AU24-JEDD Luckie Flitz BB H 0 1 10:33:22.50 18.8487 00:00:26 Yes
37 John Fukumoto - HI 44576-AU24-ARPU BB C 0 1 10:33:23.00 18.8470 00:00:27 Yes
38 Southeast Kings Loft - CA 30976-AU24-JEDD BCWF H 0 1 10:33:25.30 18.8393 00:00:29 Yes
39 ARANDAS AND RAMIRES LOFT - TX 0083-MX24-RAMI CHOC C 0 1 10:33:27.60 18.8316 00:00:31 Yes
40 Relinski & Schilling - IN 11007-AU24-HAMM BB H 0 1 10:33:28.20 18.8296 00:00:32 Yes
41 Dave Dudley/Ron Moden - CO 24549-AU24-DEHE BB H 0 1 10:33:28.50 18.8286 00:00:32 Yes
42 Same - CA 0080-AU24-TOPP BCSP H 0 1 10:33:28.90 18.8272 00:00:32 Yes
43 Los Banditos - CA 2431-AU24-LOSB BB H 0 2 10:33:29.30 18.8259 00:00:33 Yes
44 Andy & Tina Li - CA 0512-AU24-BON BB H 0 1 10:33:30.00 18.8235 00:00:34 Yes
45 Carney/Kravchuck - CT 2251-IF24-CC BB H 0 1 10:33:30.70 18.8212 00:00:34 Yes
46 De La O-Lopez-Saenz - CA 0354-AU24-HSAE BB C 0 3 10:33:32.00 18.8168 00:00:36 Yes
47 Darryl Coston - CA 0237-AU24-BAK BC C 0 1 10:33:32.10 18.8165 00:00:36 Yes
48 Milestone Loft - CA 6652-AU24-JEDD 🌺🌺🌺🌺🌺🌺ð BBSP H 0 3 10:33:32.20 18.8162 00:00:36 Yes
49 Lillie and Cecil - CA 0007-AU24-LNC SURPLUS FEED MONEY BBPD H 0 3 10:33:32.50 18.8151 00:00:36 Yes
50 C L A U S I N G - FL 0145-IF24-CLAU CHOC H 0 2 10:33:33.40 18.8121 00:00:37 Yes
50 Lillie and Cecil - CA 0021-AU24-LNC BLACK-JACK BB C 0 4 10:33:33.40 18.8121 00:00:37 Yes
52 John Karnofel - CA 0636-AU24-KFL THE DIAMON HEN BBSP H 0 1 10:33:34.20 18.8094 00:00:38 Yes
53 Bjs-Ca - CA 1144-AU24-LAP BB C 0 1 10:33:34.70 18.8078 00:00:38 Yes
54 Marlee Doms - IN 0119-AU24-ANDY BBWF H 0 1 10:33:35.30 18.8058 00:00:39 Yes
55 D and M Syndicate BC - BC 24030-CU24-ELDO BC H 0 4 10:33:35.60 18.8048 00:00:39 Yes
56 C&k Loft - FL 0712-AU24-KENC BBWF H 0 2 10:33:36.00 18.8034 00:00:40 Yes
57 FRITZIE - CA 32463-AU24-JEDD FXS BB C 0 2 10:33:36.40 18.8021 00:00:40 Yes
58 De La O-Lopez-Saenz - CA 4007-AU24-COOK BB H 0 4 10:33:36.50 18.8017 00:00:40 Yes
59 Wpg Loft - CA 26103-AU24-ARPU DC H 0 3 10:33:37.20 18.7994 00:00:41 Yes
61 Ganus Family Loft - IN 0790-AU24-GFL BB H 0 2 10:33:38.60 18.7947 00:00:42 Yes
62 John V Partridge - CA 4240-AU24-PASO Global Star Ace BCSP H 0 1 10:33:44.00 18.7767 00:00:48 Yes
63 De La O-Lopez-Saenz - CA 0046-AU24-TCH BB C 0 5 10:33:44.50 18.7750 00:00:48 Yes
64 Christopher Loft - UT 0067-AU24-GS SPL C 0 1 10:33:45.40 18.7720 00:00:49 Yes
65 Hale Nūnū - VA 29464-AU24-JEDD BC H 0 1 10:33:47.10 18.7663 00:00:51 Yes
66 Mullins Family Loft - CA 56270-AU24-ARPU DC H 0 4 10:33:48.40 18.7620 00:00:52 Yes
67 A P C Loft - TX 0271-AU24-APC BB H 0 1 10:33:51.40 18.7520 00:00:55 Yes
68 Jd Express - CA 87201-AU24-ARPU BB C 0 1 10:33:52.00 18.7500 00:00:56 Yes
69 3s Lofts - CA 0066-AU24-VIP BB H 0 1 10:33:52.30 18.7490 00:00:56 Yes
70 Mullins Family Loft - CA 56273-AU24-ARPU BBWF H 0 5 10:33:53.00 18.7467 00:00:57 Yes
71 Jalisco - CA 2006-AU24-JALI BB C 0 1 10:33:53.70 18.7443 00:00:57 Yes
72 J B M 123 - CA 78489-AU24-ARPU BB H 0 1 10:33:54.80 18.7407 00:00:58 Yes
73 Two-Be-Won - NV 24069-AU24-TBW 16265-22114 BB H 0 3 10:33:57.10 18.7330 00:01:01 Yes
74 A P C Loft - TX 0304-AU24-APC BB C 0 2 10:33:57.40 18.7320 00:01:01 Yes
75 Karl & Nate - PA 38729-AU24-JEDD BB H 0 1 10:34:05.10 18.7065 00:01:09 Yes
76 ARANDAS AND RAMIRES LOFT - TX 0088-MX24-RAMI BB H 0 2 10:34:07.20 18.6995 00:01:11 Yes
77 Onya Loft - CA 0009-AU24-SIOR BB H 0 2 10:34:08.00 18.6969 00:01:12 Yes
78 Jalisco - CA 2014-AU24-JALI BBWF H 0 2 10:34:08.80 18.6942 00:01:12 Yes
79 Michael Groe - CA 2467-AU24-GROE BB C 0 2 10:34:09.20 18.6929 00:01:13 Yes
81 We-Be-Two - CA 0414-AU24-WBT WE-BE-TWO BB C 0 1 10:34:15.20 18.6731 00:01:19 Yes
82 Partridge Family - GSP - CA 1031-AU24-GSP BB H 0 1 10:34:16.30 18.6694 00:01:20 Yes
83 I F E Loft - CA 2949-AU24-COM BBWF H 0 1 10:34:20.40 18.6559 00:01:24 Yes
84 Jalisco - CA 2003-AU24-JALI BB C 0 3 10:34:21.00 18.6539 00:01:25 Yes
85 A P C Loft - TX 0296-AU24-APC BB H 0 3 10:34:22.70 18.6483 00:01:26 Yes
86 Any Given Day Loft - TX 74256-AU24-ARPU DC H 0 1 10:34:24.00 18.6441 00:01:28 Yes
87 Andy & Tina Li - CA 0510-AU24-BON DC H 0 2 10:34:28.60 18.6289 00:01:32 Yes
88 We-Be-Two - CA 0403-AU24-WBT WE-BE-TWO BB C 0 2 10:34:30.90 18.6214 00:01:34 Yes
89 Chu Pigeons - CA 1859-AU24-MTZ DC H 0 1 10:34:36.00 18.6047 00:01:40 Yes
90 Jojos International - TX 78840-AU24-ARPU BBWF H 0 1 10:34:36.80 18.6020 00:01:40 Yes
91 A P C Loft - TX 0299-AU24-APC BB H 0 4 10:34:37.20 18.6007 00:01:41 Yes
92 Bill Kluge - TX 2415-AU24-COLD 03 DC C 0 1 10:34:37.60 18.5994 00:01:41 Yes
92 Reana And Mark - CA 0333-AU24-SD BB H 0 1 10:34:37.60 18.5994 00:01:41 Yes
94 Mullins Family Loft - CA 56409-AU24-ARPU BCSP H 0 6 10:34:38.10 18.5978 00:01:42 Yes
95 Dongbao He & Ding Yong - CA 40522-AU24-JEDD BB H 0 1 10:34:40.10 18.5912 00:01:44 Yes
96 Ledet-Gutrz - LA 24490-AU24-LEGU BC H 0 1 10:34:40.80 18.5889 00:01:44 Yes
97 C&k Loft - FL 0728-AU24-KENC BB H 0 3 10:34:42.00 18.5850 00:01:46 Yes
98 Jojos International - TX 78857-AU24-ARPU BB H 0 2 10:34:42.40 18.5837 00:01:46 Yes
99 Partridge Family - GSP - CA 1065-AU24-GSP BB H 0 2 10:34:43.10 18.5814 00:01:47 Yes
100 Ganus Family Loft - IN 0800-AU24-GFL BB C 0 3 10:34:44.00 18.5785 00:01:48 Yes
101 Jalisco - CA 2004-AU24-JALI BRON C 0 4 10:34:44.40 18.5772 00:01:48 Yes
102 We-Be-Two - CA 0412-AU24-WBT WE-BE-TWO BB C 0 3 10:34:44.90 18.5755 00:01:48 Yes

There are 734 bird records

Note: These Race Results are unofficial and subject to change until verified by the Race Committee and declared final.

 


windy
Click for Forecast for 91935 from weatherUSA Leach